Weather History for Coeur d'Alene, ID

Change the Weather History Date:

Sunday, January 12, 2014

  Actual Average Record
Temperature  
Mean Temperature 38 °F -  
Max Temperature 42 °F 31 °F 42 °F (2002)
Min Temperature 33 °F 22 °F -9 °F (2007)
Degree Days  
Heating Degree Days 28    
Moisture  
Dew Point 30 °F    
Average Humidity 76    
Maximum Humidity 93    
Minimum Humidity 65    
Precipitation  
Precipitation 0.03 in - - ()
Sea Level Pressure  
Sea Level Pressure 29.88 in    
Wind  
Wind Speed 17 mph (SW)    
Max Wind Speed 30 mph    
Max Gust Speed 41 mph    
Visibility 10 miles    
Events      
Averages and records for this station are not official NWS values.
T = Trace of Precipitation, MM = Missing Value Source: NWS Daily Summary

Daily Weather History Graph

Daily Weather History Graph

Search for Another Location

Airport:

Trip Planner

Search our weather history database for the weather conditions in past years. The results will help you decide how hot, cold, wet, or windy it might be!

Date:

Astronomy

Jan. 12, 2014 Rise Set
Actual Time 7:33 AM PST 4:18 PM PST
Civil Twilight 6:57 AM PST 4:53 PM PST
Nautical Twilight 6:19 AM PST 5:32 PM PST
Astronomical Twilight 5:42 AM PST 6:09 PM PST
Moon 1:51 PM PST (1/12) 4:33 AM PST (1/12)
Length of Visible Light 9h 55m
Length of Day
8h 45m
Waxing Gibbous, 90% of the Moon is Illuminated
Jan 12
Waxing Gibbous
Jan 15
Full
Jan 23
Last Quarter
Jan 30
New
Feb 6
First Quarter

Hourly Weather History & Observations

Time (PST) Temp. Windchill Dew Point Humidity Pressure Visibility Wind Dir Wind Speed Gust Speed Precip Events Conditions
12:15 AM 37.4 °F 25.4 °F 30.2 °F 75% 29.49 in 10.0 mi WSW 27.6 mph 40.3 mph N/A   Overcast
12:35 AM 37.4 °F 25.2 °F 30.2 °F 75% 29.49 in 10.0 mi WSW 28.8 mph 34.5 mph N/A   Overcast
12:55 AM 37.4 °F 25.0 °F 30.2 °F 75% 29.50 in 10.0 mi WSW 29.9 mph 41.4 mph N/A   Overcast
1:15 AM 37.4 °F 26.1 °F 30.2 °F 75% 29.52 in 10.0 mi WSW 24.2 mph 34.5 mph N/A   Overcast
1:35 AM 35.6 °F 23.7 °F 30.2 °F 81% 29.54 in 10.0 mi WSW 24.2 mph 33.4 mph N/A   Overcast
1:55 AM 35.6 °F 25.2 °F 30.2 °F 81% 29.56 in 10.0 mi West 18.4 mph 27.6 mph N/A   Overcast
2:15 AM 35.6 °F 24.0 °F 28.4 °F 75% 29.56 in 10.0 mi West 23.0 mph 33.4 mph N/A   Overcast
2:35 AM 35.6 °F 24.8 °F 28.4 °F 75% 29.58 in 10.0 mi WSW 19.6 mph 27.6 mph N/A   Overcast
2:55 AM 35.6 °F 25.5 °F 30.2 °F 81% 29.60 in 10.0 mi West 17.3 mph - N/A   Overcast
3:15 AM 35.6 °F 25.9 °F 28.4 °F 75% 29.62 in 10.0 mi West 16.1 mph 24.2 mph N/A   Overcast
3:35 AM 35.6 °F 25.2 °F 28.4 °F 75% 29.63 in 10.0 mi WSW 18.4 mph 23.0 mph N/A   Mostly Cloudy
3:55 AM 35.6 °F 25.5 °F 28.4 °F 75% 29.66 in 10.0 mi WSW 17.3 mph 25.3 mph N/A   Overcast
4:15 AM 35.6 °F 25.5 °F 28.4 °F 75% 29.68 in 10.0 mi WSW 17.3 mph 23.0 mph N/A   Overcast
4:35 AM 35.6 °F 27.1 °F 28.4 °F 75% 29.70 in 10.0 mi WSW 12.7 mph - N/A   Overcast
4:55 AM 35.6 °F 25.9 °F 28.4 °F 75% 29.71 in 10.0 mi SW 16.1 mph - N/A   Overcast
5:15 AM 35.6 °F 28.0 °F 28.4 °F 75% 29.74 in 10.0 mi SW 10.4 mph 17.3 mph N/A   Overcast
5:35 AM 35.6 °F 28.0 °F 28.4 °F 75% 29.75 in 10.0 mi WSW 10.4 mph 20.7 mph N/A   Overcast
5:55 AM 35.6 °F 26.2 °F 26.6 °F 70% 29.77 in 10.0 mi WSW 15.0 mph 19.6 mph N/A   Overcast
6:15 AM 35.6 °F 24.8 °F 26.6 °F 70% 29.77 in 10.0 mi WSW 19.6 mph 23.0 mph N/A   Scattered Clouds
6:35 AM 35.6 °F 24.5 °F 26.6 °F 70% 29.78 in 10.0 mi WSW 20.7 mph 26.5 mph N/A   Clear
6:55 AM 35.6 °F 24.2 °F 26.6 °F 70% 29.79 in 10.0 mi WSW 21.9 mph 28.8 mph N/A   Clear
7:15 AM 35.6 °F 24.2 °F 24.8 °F 65% 29.80 in 10.0 mi WSW 21.9 mph 29.9 mph N/A   Clear
7:35 AM 35.6 °F 25.5 °F 26.6 °F 70% 29.82 in 10.0 mi West 17.3 mph 26.5 mph N/A   Clear
7:55 AM 35.6 °F 25.5 °F 26.6 °F 70% 29.84 in 10.0 mi West 17.3 mph 24.2 mph N/A   Clear
8:15 AM 35.6 °F 25.9 °F 26.6 °F 70% 29.86 in 10.0 mi WSW 16.1 mph 25.3 mph N/A   Clear
8:35 AM 35.6 °F 25.5 °F 24.8 °F 65% 29.89 in 10.0 mi WSW 17.3 mph 26.5 mph N/A   Clear
8:55 AM 35.6 °F 25.9 °F 26.6 °F 70% 29.91 in 10.0 mi WSW 16.1 mph 21.9 mph N/A   Clear
9:15 AM 35.6 °F 26.6 °F 26.6 °F 70% 29.93 in 10.0 mi WSW 13.8 mph - N/A   Partly Cloudy
9:35 AM 35.6 °F 28.0 °F 26.6 °F 70% 29.95 in 10.0 mi SW 10.4 mph - N/A   Partly Cloudy
9:55 AM 35.6 °F 28.0 °F 26.6 °F 70% 29.97 in 10.0 mi SW 10.4 mph - N/A   Mostly Cloudy
10:15 AM 35.6 °F 29.2 °F 26.6 °F 70% 29.98 in 10.0 mi South 8.1 mph - N/A   Overcast
10:35 AM 35.6 °F 28.6 °F 26.6 °F 70% 29.99 in 10.0 mi SW 9.2 mph - N/A   Overcast
10:55 AM 37.4 °F 32.1 °F 26.6 °F 65% 29.99 in 10.0 mi SSW 6.9 mph - N/A   Overcast
11:15 AM 37.4 °F 30.8 °F 26.6 °F 65% 29.98 in 10.0 mi SSW 9.2 mph - N/A   Overcast
11:35 AM 37.4 °F 28.9 °F 28.4 °F 70% 29.98 in 10.0 mi SSW 13.8 mph 18.4 mph N/A   Overcast
11:55 AM 37.4 °F 28.2 °F 26.6 °F 65% 29.98 in 10.0 mi SW 16.1 mph 20.7 mph N/A   Overcast
12:15 PM 37.4 °F 28.5 °F 26.6 °F 65% 29.98 in 10.0 mi WSW 15.0 mph - N/A   Overcast
12:35 PM 37.4 °F 28.9 °F 28.4 °F 70% 29.98 in 10.0 mi WSW 13.8 mph 20.7 mph N/A   Overcast
12:55 PM 37.4 °F 28.2 °F 28.4 °F 70% 29.98 in 10.0 mi WSW 16.1 mph - N/A   Mostly Cloudy
1:15 PM 37.4 °F 29.8 °F 28.4 °F 70% 29.99 in 10.0 mi SSW 11.5 mph - N/A   Overcast
1:35 PM 37.4 °F 31.4 °F 28.4 °F 70% 30.00 in 10.0 mi SW 8.1 mph - N/A   Mostly Cloudy
1:55 PM 39.2 °F 31.6 °F 30.2 °F 70% 29.98 in 10.0 mi WSW 12.7 mph 20.7 mph N/A   Overcast
2:15 PM 37.4 °F 28.2 °F 30.2 °F 75% 29.98 in 10.0 mi SW 16.1 mph 27.6 mph N/A   Overcast
2:35 PM 37.4 °F 28.2 °F 30.2 °F 75% 29.99 in 10.0 mi SW 16.1 mph 24.2 mph N/A   Mostly Cloudy
2:55 PM 35.6 °F 28.0 °F 30.2 °F 81% 29.99 in 10.0 mi SW 10.4 mph - N/A   Overcast
3:15 PM 35.6 °F 29.9 °F 32.0 °F 87% 30.00 in 9.0 mi SSW 6.9 mph - 0.01 in   Overcast
3:35 PM 35.6 °F 28.6 °F 30.2 °F 81% 30.01 in 8.0 mi South 9.2 mph - 0.02 in   Overcast
3:55 PM 35.6 °F 28.0 °F 30.2 °F 81% 30.01 in 10.0 mi South 10.4 mph - 0.02 in   Overcast
4:15 PM 33.8 °F 25.3 °F 30.2 °F 87% 30.01 in 9.0 mi South 11.5 mph - 0.01 in   Overcast
4:35 PM 33.8 °F 26.4 °F 30.2 °F 87% 30.01 in 10.0 mi SSE 9.2 mph - 0.01 in   Overcast
4:55 PM 35.6 °F 28.6 °F 32.0 °F 87% 30.01 in 10.0 mi South 9.2 mph - 0.01 in   Overcast
5:15 PM 35.6 °F 31.7 °F 32.0 °F 87% 30.00 in 10.0 mi SW 4.6 mph - N/A   Overcast
5:35 PM 35.6 °F 30.7 °F 32.0 °F 87% 30.00 in 10.0 mi WSW 5.8 mph - N/A   Overcast
5:55 PM 35.6 °F 29.2 °F 30.2 °F 81% 30.00 in 10.0 mi SW 8.1 mph - N/A   Overcast
6:15 PM 35.6 °F 29.2 °F 32.0 °F 87% 30.00 in 10.0 mi SW 8.1 mph - N/A   Overcast
6:35 PM 35.6 °F 30.7 °F 32.0 °F 87% 29.99 in 10.0 mi WSW 5.8 mph - N/A   Overcast
6:55 PM 37.4 °F 32.1 °F 32.0 °F 81% 29.99 in 10.0 mi SW 6.9 mph - N/A   Overcast
7:15 PM 37.4 °F 33.8 °F 33.8 °F 87% 29.99 in 10.0 mi SW 4.6 mph - N/A   Overcast
7:35 PM 37.4 °F - 33.8 °F 87% 29.98 in 10.0 mi Calm Calm - N/A   Overcast
7:55 PM 37.4 °F - 35.6 °F 93% 29.98 in 10.0 mi Calm Calm - N/A   Overcast
8:15 PM 39.2 °F - 33.8 °F 81% 29.98 in 10.0 mi Calm Calm - N/A   Overcast
8:35 PM 41.0 °F 32.5 °F 35.6 °F 81% 29.99 in 10.0 mi WSW 17.3 mph 23.0 mph N/A   Overcast
8:55 PM 41.0 °F 33.5 °F 35.6 °F 81% 30.00 in 10.0 mi West 13.8 mph 24.2 mph N/A   Overcast
9:15 PM 39.2 °F 31.2 °F 35.6 °F 87% 30.00 in 10.0 mi WSW 13.8 mph 21.9 mph N/A   Overcast
9:35 PM 41.0 °F 33.9 °F 35.6 °F 81% 30.01 in 10.0 mi WSW 12.7 mph - N/A   Mostly Cloudy
9:55 PM 41.0 °F 35.2 °F 35.6 °F 81% 30.03 in 10.0 mi WSW 9.2 mph - N/A   Mostly Cloudy
10:15 PM 41.0 °F 34.3 °F 35.6 °F 81% 30.04 in 10.0 mi WSW 11.5 mph 19.6 mph N/A   Overcast
10:35 PM 41.0 °F 31.9 °F 35.6 °F 81% 30.05 in 10.0 mi WSW 19.6 mph 24.2 mph N/A   Overcast
10:55 PM 41.0 °F 32.5 °F 35.6 °F 81% 30.04 in 10.0 mi WSW 17.3 mph 21.9 mph N/A   Mostly Cloudy
11:15 PM 42.8 °F 34.3 °F 35.6 °F 76% 30.06 in 10.0 mi WSW 19.6 mph 26.5 mph N/A   Mostly Cloudy
11:35 PM 41.0 °F 32.5 °F 35.6 °F 81% 30.06 in 10.0 mi WSW 17.3 mph 20.7 mph N/A   Scattered Clouds
11:55 PM 41.0 °F 33.1 °F 35.6 °F 81% 30.07 in 10.0 mi WSW 15.0 mph 23.0 mph N/A   Mostly Cloudy